Regional Weather Roundup
Issued by NWS Newport/Morehead, NC

Current Version | Previous Version | Text Only | Print | Product List | Glossary Off
Versions: 1 2 3 4 5 6 7 8 9 10 11 12 13 14 15 16 17 18 19 20 21 22 23 24 25 26 27 28 29 30 31 32 33 34 35 36 37 38 39 40 41 42 43 44 45 46 47 48 49 50
000 ASUS42 KMHX 292025 RWRMHX WEATHER ROUNDUP FOR EASTERN NORTH CAROLINA NATIONAL WEATHER SERVICE NEWPORT/MOREHEAD CITY NC 400 PM EDT MON JUN 29 2015 NOTE: "FAIR" INDICATES FEW OR NO CLOUDS BELOW 12,000 FEET WITH NO SIGNIFICANT WEATHER AND/OR OBSTRUCTIONS TO VISIBILITY NCZ015>017-031-032-045>047-102-103-292100- NORTH COAST CITY SKY/WX TMP DP RH WIND PRES REMARKS EDENTON N/A 83 70 64 E9 29.95F ELIZABETH CITY MOSUNNY 82 65 56 E10 29.96F KITTY HAWK MOCLDY 83 65 54 SE7 29.96F MANTEO PTSUNNY 82 67 61 SE8 29.96F $$ NCZ045>047-081-094-103-104-292100- CENTRAL COAST CITY SKY/WX TMP DP RH WIND PRES REMARKS FRISCO PTSUNNY 81 71 71 VRB5 29.96F SWANQUARTER N/A 86 N/A N/A S9 29.91F $$ NCZ095-097-098-100-101-292100- SOUTHERN COAST CITY SKY/WX TMP DP RH WIND PRES REMARKS BEAUFORT PTSUNNY 81 73 76 VRB7 29.96F CEDAR ISLAND N/A 82 N/A N/A E8 30.00S JACKSONVILLE MOSUNNY 85 67 54 SE9 29.95F PINEY ISLAND MOCLDY N/A N/A N/A VRB5 29.95F WILMINGTON PTSUNNY 82 73 74 SE7 29.95S $$ NCZ011>013-027>030-043-044-078>080-089-090>093-098-292100- COASTAL PLAIN CITY SKY/WX TMP DP RH WIND PRES REMARKS AHOSKIE MOSUNNY 82 63 51 CALM 29.95F CLINTON PTSUNNY 84 72 67 CALM 29.94F ELIZABETHTOWN SUNNY 89 59 36 SW6 29.93F GOLDSBORO PTSUNNY 86 66 50 E7 29.91F GREENVILLE SUNNY 86 68 54 E5 29.96S HAVELOCK PTSUNNY 85 65 51 S10 29.96F KENANSVILLE MOSUNNY 83 66 55 CALM 29.95S KINSTON MOSUNNY 88 66 48 S7 29.94F NEW BERN MOSUNNY 86 67 52 SE10 29.96F RICHLANDS PTSUNNY 86 64 48 SE9 29.95S ROCKY MOUNT MOSUNNY 86 59 39 SE6 29.94F WASHINGTON MOSUNNY 83 65 54 SE9 29.95S WHITEVILLE MOSUNNY 88 59 37 SW5 29.93F $$ AMZ130-135-150-152-154-156-158-170-250-252-270-ANZ085-086-088-633-658-670-292100- MARINE OBSERVATIONS STATION/POSITION TIME TEMP WIND PRES WAVE SWELL AIR SEA DIR/SP/G HT/PER HT/PER (UTC) (F) (DEG/KT/KT) (MB) (FT/S) (FT/S) CHESAPEAKE LIGHT 2000 75 130/ 6/ 7 1015.5 64 E VA BEACH 1950 77 77 170/ 4/ 4 1014.9 4/ 7 3/ 7 DUCK 2000 78 69 100/ 8/ 10 1013.9 2 E DUCK 1911 76 N/A 2/ 8 OREGON INLET 2000 78 77 70/ 7/ 9 1014.6 13E OREGON INLT 2000 76 N/A 3/ 8 HATTERAS CG 2000 82 80 180/ 3/ 6 1014.3 DIAMOND BUOY 1950 80 81 230/ 10/ 12 1014.3 3/ 8 3/ 8 CAPE LOOKOUT 2000 79 170/ 9/ 11 1014.1 BEAUFORT LAB 2000 80 82 190/ 7/ 9 1013.7 30 SE NEW RVR IN 1908 80 81 160/ 8/ 10 1014.9 27 SE WRIGHTSVLE 2000 82 190/ 10/ 12 N/A 5 SE WRIGHTSVLE 1908 79 80 140/ 8/ 12 1014.2 225 S CAPE HAT 1950 80 80 200/ 19/ 21 1017.2 6/ 8 41 SE CHARLESTON 1950 81 83 230/ 12/ 14 1014.5 4/ 7 3/ 7 $$

USA.gov is the U.S. government's official web portal to all federal, state and local government web resources and services.